Location: 22
(39.7117°N, 89.5929°W)
Time: 08:59:25
(UTC-05:00)

S-56A Canister/Altair - Pass Details

Date: 16 February 2023
Orbit: 638 x 2493 km, 38.9° (Epoch: 25 March)

Event Time Altitude Azimuth Distance (km) Brightness Sun altitude
Rises 06:33:19 0° 238° (WSW) 4,123 10.8 -3.9°
Reaches altitude 10° 06:36:39 10° 233° (SW) 2,877 10.1 -3.3°
Maximum altitude 06:42:55 48° 161° (SSE) 1,051 8.6 -2.1°
Drops below altitude 10° 06:47:35 10° 87° (E) 2,149 11.4 -1.2°
Sets 06:49:46 0° 81° (E) 2,986 12.0 -0.8°
